Vertical_Velocity
-1 -1 -2 -3 -3 -3 -3 -2 -1 -1 -1 -1 -1 -1 -1 -1 -0 0 0 0 0 0 0 0 0 0 0 0 0 0 0 -0 -1 -1 -1 -1 -2 -2 -1 -0 1 1 1 1 1 1 1 0 -1 -1 -2 -2 -1 1 2 2 0 -1 -2 -2 -2 -2 -1 -0 0 0 -0 -1 -0
-1 -1 -2 -3 -3 -3 -2 -1 -1 -1 -1 -1 -1 -1 -1 -0 0 0 0 0 0 -0 -0 -0 -0 -0 0 0 0 -0 -0 -1 -1 -1 -1 -1 -2 -2 -1 0 2 2 1 1 1 0 -0 -1 -1 -2 -2 -0 1 2 1 -1 -1 -1 -1 -2 -2 -1 -0 0 0 -0 -0 -0 0
-1 -1 -2 -2 -3 -3 -2 -1 -1 -1 -1 -2 -2 -2 -1 -0 1 1 1 0 -0 -0 -0 -0 -0 -0 -0 -0 0 -0 -0 -0 -0 -0 -1 -1 -1 -1 -0 1 2 2 1 0 -0 -1 -1 -2 -2 -1 -0 1 2 1 -0 -1 -1 -1 -1 -1 -1 -1 -0 0 -0 -0 0 0 0
-1 -1 -1 -2 -2 -2 -2 -1 -1 -1 -1 -2 -3 -3 -2 -0 0 1 0 -0 -1 -1 -1 -1 -0 -0 -0 0 0 0 0 0 0 0 -0 -1 -1 -0 1 2 1 1 0 -0 -1 -2 -2 -2 -2 -1 1 2 1 -0 -1 -1 -1 -1 -1 -1 -1 -1 -0 -0 0 0 0 0 0
-1 -1 -1 -1 -1 -1 -0 0 0 0 -1 -2 -4 -3 -2 -1 -0 -0 -1 -1 -1 -1 -1 -0 0 0 0 1 1 1 1 1 1 0 -0 -1 -0 0 1 1 0 -0 -1 -1 -2 -2 -2 -2 -1 0 1 1 -0 -1 -2 -1 -1 -1 -1 -1 -1 -1 -0 0 0 0 0 0 -0
-1 -1 -1 -1 -1 -0 0 -0 0 0 -1 -2 -3 -3 -2 -2 -1 -2 -2 -2 -2 -1 -1 0 1 1 1 1 1 1 1 1 0 -0 -1 -1 -0 0 0 -0 -1 -1 -1 -1 -1 -1 -1 -1 -0 0 1 0 -0 -0 -1 -1 -2 -2 -1 -1 -1 -0 0 0 0 0 -0 -0 -0
-1 -1 -2 -2 -1 -0 -0 -1 -0 -1 -1 -3 -3 -2 -2 -2 -2 -2 -2 -2 -1 -1 -0 1 1 1 1 1 1 1 1 0 -0 -1 -1 -1 -0 -0 -1 -1 -1 -0 0 1 1 0 -0 -0 0 0 0 0 2 2 1 -0 -1 -1 -1 -1 -0 -0 -0 -0 -0 -0 -0 -0 -1
-2 -2 -2 -2 -0 -0 -0 -1 -1 -2 -3 -4 -3 -2 -2 -2 -3 -3 -2 -2 -1 0 1 1 1 1 0 0 1 1 1 -1 -1 -1 -1 -1 -1 -1 -1 -1 -0 0 1 2 2 1 -0 -1 -0 -0 -0 0 1 0 -0 -1 -1 -1 -1 -0 -0 -0 -0 -0 -0 -0 -0 -1 -1
-3 -3 -2 -1 0 -0 -0 -1 -2 -3 -4 -5 -4 -3 -3 -3 -3 -2 -2 -1 0 1 2 2 1 -0 -1 -0 0 0 -0 -1 -1 -1 -1 -1 -1 -1 -1 -1 -0 0 1 2 1 -0 -1 -1 -1 -1 -1 -1 -1 -1 -2 -2 -2 -2 -1 0 0 -0 -1 -1 -0 -0 -1 -1 -1
-4 -4 -2 -1 -1 -1 -1 -1 -3 -4 -5 -5 -5 -4 -4 -3 -2 -1 -0 0 1 2 2 1 -0 -1 -1 -1 -0 -0 -1 -2 -2 -1 -1 -1 -1 -1 -1 -1 -0 -0 0 0 -1 -1 -1 -2 -2 -1 -1 -1 -1 -2 -2 -2 -2 -2 -1 1 0 -0 -1 -1 -1 -0 -1 -1 -1
-4 -3 -2 -1 -2 -2 -2 -3 -4 -5 -5 -5 -5 -5 -4 -3 -1 0 1 1 2 1 1 -0 -1 -1 -1 -1 -0 -1 -2 -2 -2 -1 -0 0 -0 -0 -1 -1 -1 -0 -1 -1 -1 -2 -2 -2 -2 -1 -1 -1 -1 -1 -1 -1 -1 -1 -0 1 -1 -2 -1 -1 -0 -0 -1 -1 -1
-3 -2 -1 -2 -2 -2 -2 -3 -5 -5 -5 -5 -5 -5 -3 -1 -0 0 1 1 1 0 -0 -1 -1 -1 -1 -1 -1 -2 -2 -2 -1 -0 0 0 0 -0 -0 -0 -0 -1 -1 -1 -1 -2 -2 -2 -1 -1 -1 -1 -1 -1 -1 -1 -1 -0 -0 -1 -2 -1 -1 -0 -0 -0 -1 -1 -1
-3 -2 -2 -2 -2 -2 -2 -2 -3 -4 -4 -5 -5 -3 -2 -1 -0 -0 -0 0 0 -0 -1 -1 -1 -1 -1 -1 -2 -2 -2 -2 -1 -0 -0 -0 -0 -0 -0 -0 -0 -0 -1 -1 -1 -1 -1 -1 -1 -1 -1 -1 -1 -1 -1 -0 -0 0 0 -1 -1 -1 -0 -0 -0 -1 -1 -1 -1
-3 -2 -3 -3 -2 -2 -1 -1 -1 -2 -3 -4 -3 -1 -1 -1 -1 -1 -0 -0 -0 -1 -1 -1 -1 -1 -2 -2 -2 -2 -2 -1 -1 -1 -1 -1 -1 -0 -0 0 0 0 -0 -1 -1 -1 -1 -0 -1 -1 -1 -1 -1 -0 -0 0 0 0 -0 -1 -1 -0 -0 -0 -1 -1 -1 -1 -1
-3 -2 -2 -3 -2 -1 -1 -0 -0 -1 -2 -2 -1 -0 -0 -1 -1 -1 -1 -1 -1 -1 -1 -1 -1 -2 -2 -3 -2 -2 -1 -1 -1 -1 -1 -1 -1 -1 -0 0 0 0 -0 -1 -0 -0 -0 -0 -1 -1 -1 -1 -0 -0 0 0 -0 -0 -1 -1 -1 -0 -0 -1 -1 -1 -1 -0 -0
-3 -2 -2 -2 -1 -1 -0 0 -0 -1 -1 0 1 1 -0 -1 -1 -1 -1 -2 -2 -2 -2 -1 -1 -2 -2 -3 -2 -2 -1 -1 -1 -1 -1 -1 -1 -1 -0 0 0 0 -0 -0 -0 -0 -1 -1 -1 -1 -1 -1 -0 -0 -0 -0 -1 -1 -1 -1 -1 -1 -1 -1 -0 -0 -0 -0 -1
-3 -2 -2 -1 -1 -1 -0 -0 -0 -0 0 2 2 1 0 -1 -1 -2 -2 -3 -3 -3 -2 -1 -1 -2 -2 -2 -2 -1 -1 -1 -1 -1 -1 -1 -1 -0 -0 0 -0 -1 -1 -1 -1 -1 -1 -1 -1 -1 -1 -1 -1 -1 -1 -1 -1 -1 -1 -1 -1 -0 -0 -0 -0 -0 -0 -1 -1
-2 -2 -1 -0 -0 -0 -0 -1 -1 -0 1 3 2 1 0 -0 -1 -2 -3 -3 -3 -3 -1 -0 -2 -2 -2 -1 -1 -0 -0 -0 -0 -0 -0 -1 -1 -1 -0 -1 -1 -1 -1 -1 -1 -1 -1 -1 -1 -1 -1 -1 -1 -1 -1 -1 -1 -0 -0 -0 -0 -0 -0 -0 -0 -0 -1 -1 -1
-2 -1 -0 0 0 -0 -0 -1 -1 0 1 3 2 1 0 -0 -1 -2 -2 -3 -3 -2 -1 -0 -2 -2 -1 -0 0 0 0 -0 -0 -1 -1 -1 -1 -1 -1 -1 -2 -2 -1 -1 -1 -1 -1 -1 -1 -1 -1 -1 -1 -1 -1 -0 0 0 0 0 -0 -0 -0 -0 -0 -0 -1 -1 -2
-1 -1 -0 -0 -0 -0 -1 -1 -1 0 1 2 1 0 -0 -0 -0 -1 -1 -2 -2 -1 -0 -0 -1 -1 0 1 1 1 0 -0 -1 -1 -1 -1 -1 -1 -2 -2 -2 -2 -1 -1 -1 -1 -1 -2 -1 -1 -1 -1 -1 -0 0 0 0 0 -0 -0 -1 -0 -0 -0 -0 -1 -1 -2 -2
-0 -0 -0 -0 -0 -1 -2 -2 -1 -0 1 1 0 -0 0 1 1 0 -1 -2 -1 0 1 0 -0 0 0 1 1 0 -0 -1 -1 -2 -2 -2 -1 -1 -2 -2 -1 -1 -1 -1 -1 -1 -2 -2 -1 -1 -1 -1 -1 -0 0 0 -0 -0 -1 -1 -1 -1 -0 -0 -1 -1 -1 -2 -2
-0 -0 -0 -0 -1 -1 -2 -3 -2 -1 0 -0 -0 1 2 3 2 0 -1 -1 -0 1 1 0 0 0 0 0 0 -0 -0 -1 -1 -1 -1 -1 -1 -1 -1 -1 -1 -1 -1 -1 -1 -1 -1 -1 -1 -1 -1 -1 -1 -0 -0 -0 -0 -1 -1 -1 -1 -1 -1 -1 -1 -1 -2 -2 -1
-0 -0 -1 -1 -2 -2 -2 -3 -2 -1 -1 -1 1 2 4 4 2 0 -1 -1 0 1 1 0 -0 -0 -0 -0 -0 -0 -0 -0 -1 -1 -1 -0 -0 -0 -0 -0 -0 -1 -1 -1 -1 -1 -1 -1 -1 -1 -1 -1 -1 -1 -0 -0 -1 -1 -1 -1 -1 -1 -1 -1 -2 -2 -2 -1 -1
-1 -1 -2 -2 -2 -3 -3 -3 -3 -2 -1 1 3 4 4 3 1 -0 -1 0 1 1 0 -1 -1 -1 -1 -0 -0 -0 0 0 0 0 0 0 0 -0 -0 -0 -0 -1 -1 -1 -1 -1 -1 -1 -1 -1 -1 -1 -1 -1 -1 -1 -1 -2 -1 -1 -1 -1 -1 -2 -2 -2 -2 -1 -1
-1 -1 -2 -2 -3 -3 -4 -4 -4 -2 1 4 5 5 4 2 1 0 0 1 0 -0 -1 -1 -1 -1 -1 -0 -0 0 1 1 1 1 1 0 -0 -0 -1 -1 -1 -1 -1 -1 -1 -1 -1 -1 -1 -1 -1 -1 -1 -1 -1 -2 -2 -2 -2 -1 -1 -2 -2 -2 -2 -1 -1 -1 -2
-1 -1 -2 -2 -2 -3 -4 -5 -3 1 4 6 6 4 3 1 1 1 0 0 -1 -1 -2 -2 -1 -1 -1 -0 0 1 2 2 2 1 0 0 -0 -1 -1 -1 -1 -1 -1 -1 -1 -1 -1 -1 -1 -0 -0 -1 -1 -1 -2 -2 -2 -2 -2 -2 -2 -2 -2 -1 -1 -1 -1 -2 -2
-1 -1 -2 -1 -2 -3 -4 -5 -0 4 7 6 5 3 2 2 1 1 0 -1 -1 -2 -2 -2 -1 -1 -0 0 1 2 2 2 1 0 -0 -0 -1 -1 -2 -2 -2 -1 -1 -1 -1 -0 -0 -0 -0 -0 -1 -1 -1 -2 -2 -2 -2 -2 -2 -2 -2 -2 -2 -1 -1 -1 -1 -2 -2
-1 -1 -1 -1 -2 -4 -4 -2 3 6 7 5 3 3 2 1 1 0 -0 -1 -2 -2 -2 -1 -1 -1 -0 1 1 2 1 1 0 0 -0 -0 -1 -1 -1 -2 -2 -1 -1 -1 -1 -1 -1 -1 -1 -1 -1 -2 -2 -2 -2 -2 -2 -2 -2 -3 -2 -2 -1 -1 -1 -1 -2 -2 -2
-0 -1 -1 -2 -4 -4 -3 1 5 6 5 4 3 3 2 0 1 1 0 -1 -1 -1 -1 -1 -1 -1 0 1 1 1 1 1 0 -0 -0 -0 -0 -1 -1 -1 -1 -1 -1 -1 -1 -1 -1 -1 -1 -1 -2 -2 -2 -1 -2 -2 -2 -2 -2 -2 -2 -1 -1 -1 -1 -2 -2 -2 -2
0 -1 -2 -4 -4 -3 -0 3 5 5 4 4 3 2 1 0 1 1 -0 -1 -1 -1 -0 -0 -1 -1 0 1 1 1 1 0 -0 -0 -0 -0 -1 -1 -1 -1 -1 -1 -1 -1 -1 -2 -2 -2 -2 -2 -2 -2 -2 -1 -2 -2 -2 -2 -2 -1 -1 -1 -1 -1 -2 -2 -2 -2 -2
-1 -3 -4 -4 -3 -1 2 4 5 5 4 3 2 0 0 1 1 0 -0 -1 -1 -1 -0 -1 -1 -1 -0 0 0 0 0 -0 -1 -1 -1 -1 -1 -1 -2 -2 -2 -2 -1 -1 -1 -2 -2 -2 -2 -2 -2 -2 -2 -2 -1 -1 -1 -1 -1 -1 -1 -1 -1 -2 -2 -2 -2 -2 -1
-3 -5 -4 -2 -1 1 3 4 5 4 4 3 1 -0 -0 1 1 1 0 -1 -1 -1 -1 -1 -1 -1 -0 0 -0 -0 -0 -1 -1 -1 -1 -2 -2 -2 -2 -3 -2 -1 -1 -1 -1 -2 -2 -2 -2 -2 -2 -2 -2 -1 -1 -1 -1 -1 -1 -1 -1 -1 -2 -2 -2 -2 -2 -1 -1
-5 -4 -2 -0 1 2 3 4 4 4 3 1 0 -0 0 0 0 -0 -1 -2 -1 -1 -1 -1 -0 0 0 1 0 -0 -1 -1 -2 -2 -2 -2 -2 -2 -2 -2 -1 -1 -1 -1 -1 -1 -2 -2 -2 -1 -1 -1 -1 -1 -1 -1 -0 -0 -1 -1 -1 -1 -2 -2 -2 -2 -1 -1 -1
-4 -2 1 2 2 3 4 4 4 3 2 1 0 1 1 0 -0 -1 -2 -2 -2 -2 -1 -0 0 1 1 1 1 -0 -1 -2 -2 -3 -3 -3 -3 -2 -2 -1 -1 -1 -1 -1 -1 -1 -1 -1 -1 -1 -1 -1 -1 -1 -1 -0 -0 -0 -1 -1 -1 -2 -2 -2 -2 -1 -1 -1 -1
-1 1 3 3 4 4 4 4 3 2 1 -0 1 1 1 1 0 -0 -1 -1 -1 -1 -1 -0 0 1 1 1 0 -0 -1 -2 -3 -3 -3 -3 -2 -2 -2 -1 -1 -0 -0 -0 -1 -1 -1 -1 -1 -1 -1 -1 -1 -1 -1 -0 -0 -0 -1 -1 -1 -2 -2 -1 -1 -1 -1 -1 -1
2 3 3 3 4 4 4 3 2 0 -1 -1 0 1 1 -0 0 1 1 0 0 0 -0 -0 0 -0 -0 -1 -1 -1 -1 -1 -2 -3 -3 -3 -2 -2 -1 -1 -0 -0 -0 -0 -0 -0 -1 -1 -1 -1 -0 -0 -1 -0 -0 -0 -0 -1 -1 -1 -2 -2 -1 -1 -1 -1 -0 -0 -1
2 3 4 4 4 4 4 3 1 -0 -1 -1 1 1 1 -0 1 1 1 1 1 1 0 0 -0 -1 -2 -2 -1 -1 -0 -0 -2 -3 -3 -3 -2 -1 -1 -1 -0 -0 -0 -1 -1 -1 -1 -1 -1 -0 -0 -0 -0 -0 -0 -0 -0 -1 -1 -1 -2 -1 -1 -1 -0 -0 -0 -0 -1
2 3 4 5 4 3 3 2 1 -0 -1 0 2 2 1 1 1 0 0 0 0 0 0 -0 -1 -2 -3 -3 -2 -1 0 0 -1 -3 -4 -5 -4 -2 -1 -0 -0 -0 -0 -1 -1 -1 -1 -1 -0 0 0 -0 -0 -0 -0 -0 -0 -1 -1 -2 -2 -1 -1 -0 0 0 0 -0 -1
2 3 4 5 4 3 2 2 1 1 1 2 3 2 1 1 0 -1 -1 -1 -1 -1 -1 -1 -2 -3 -4 -3 -1 -0 0 -0 -1 -3 -4 -7 -6 -4 -1 -0 -0 -0 -0 -0 -0 -1 -1 -1 0 0 0 0 0 0 0 -0 -1 -1 -1 -2 -1 -1 -0 0 0 0 0 -0 -1
2 3 4 5 5 3 2 2 2 2 2 3 2 1 -0 -1 -2 -2 -2 -3 -3 -2 -2 -2 -2 -3 -3 -2 -1 -0 0 -0 -1 -2 -4 -6 -6 -4 -2 -1 -1 -1 -0 0 0 -0 -0 0 1 1 1 1 0 0 0 -0 -1 -1 -2 -2 -1 -1 0 1 1 0 0 -0 -1
2 3 4 5 5 4 4 3 2 1 1 1 0 -1 -2 -3 -3 -2 -2 -3 -4 -4 -4 -4 -4 -4 -4 -3 -1 -1 -0 -1 -1 -2 -3 -5 -5 -4 -2 -1 -1 -1 -0 0 1 0 1 1 1 1 1 1 0 0 -0 -1 -1 -1 -1 -2 -1 -0 0 1 0 0 -0 -1 -1
Height
3052 3053 3055 3057 3059 3061 3063 3064 3066 3068 3069 3071 3073 3075 3077 3079 3081 3083 3084 3086 3088 3089 3091 3092 3094 3095 3097 3098 3099 3101 3102 3103 3104 3105 3107 3108 3108 3110 3111 3112 3113 3113 3114 3115 3115 3116 3116 3116 3117 3117 3118 3118 3119 3119 3120 3119 3119 3119 3119 3119 3119 3120 3120 3120 3121 3121 3121 3121 3121
3052 3053 3055 3057 3059 3061 3062 3064 3065 3067 3069 3071 3073 3075 3077 3078 3080 3082 3084 3085 3087 3089 3090 3092 3093 3095 3097 3098 3099 3101 3102 3103 3104 3105 3106 3107 3108 3109 3110 3111 3112 3113 3113 3114 3114 3115 3115 3116 3116 3117 3117 3118 3118 3119 3119 3118 3118 3118 3118 3119 3119 3119 3120 3120 3120 3120 3120 3120 3120
3051 3053 3055 3057 3058 3060 3062 3063 3065 3067 3068 3070 3072 3074 3076 3078 3080 3082 3083 3085 3087 3088 3090 3092 3093 3095 3096 3098 3099 3100 3102 3103 3104 3105 3106 3107 3108 3109 3110 3111 3112 3112 3113 3113 3113 3114 3114 3115 3116 3116 3117 3118 3118 3118 3118 3118 3118 3118 3118 3118 3118 3119 3119 3119 3119 3119 3119 3119 3119
3051 3053 3055 3057 3058 3060 3061 3063 3064 3066 3068 3070 3072 3074 3076 3078 3080 3082 3083 3085 3087 3088 3090 3092 3093 3095 3096 3098 3099 3100 3102 3103 3104 3105 3106 3107 3108 3108 3109 3110 3111 3111 3112 3112 3113 3113 3114 3114 3115 3116 3116 3117 3117 3117 3117 3117 3117 3118 3118 3118 3118 3118 3118 3118 3119 3119 3119 3119 3119
3051 3053 3054 3056 3058 3059 3061 3063 3064 3066 3068 3069 3071 3073 3076 3078 3079 3081 3083 3085 3087 3088 3090 3092 3093 3095 3096 3098 3099 3100 3102 3103 3104 3105 3106 3106 3107 3108 3109 3109 3110 3110 3111 3111 3112 3113 3113 3114 3114 3115 3115 3116 3116 3116 3116 3117 3117 3117 3117 3117 3118 3118 3118 3118 3118 3118 3118 3118 3118
3051 3052 3054 3056 3057 3059 3060 3062 3064 3066 3068 3069 3071 3073 3075 3077 3079 3081 3083 3085 3087 3088 3090 3092 3093 3095 3096 3098 3099 3100 3102 3103 3103 3104 3105 3106 3107 3108 3108 3108 3109 3110 3110 3111 3111 3112 3113 3113 3113 3114 3114 3115 3115 3116 3116 3116 3116 3116 3117 3117 3117 3117 3117 3117 3117 3118 3118 3118 3118
3050 3052 3053 3055 3057 3058 3060 3062 3064 3066 3068 3069 3071 3073 3075 3077 3079 3081 3083 3085 3087 3088 3090 3092 3093 3095 3096 3098 3099 3100 3101 3102 3103 3104 3105 3105 3106 3107 3107 3108 3108 3109 3110 3110 3111 3111 3112 3112 3113 3113 3114 3114 3115 3115 3115 3115 3116 3116 3116 3116 3116 3116 3117 3117 3117 3117 3117 3117 3117
3050 3051 3053 3055 3056 3058 3060 3062 3064 3066 3068 3070 3072 3073 3076 3078 3080 3082 3083 3085 3087 3089 3091 3092 3093 3095 3096 3098 3099 3100 3101 3102 3103 3103 3104 3105 3105 3106 3107 3107 3108 3108 3109 3110 3111 3111 3111 3112 3112 3113 3113 3114 3114 3115 3115 3115 3115 3115 3115 3116 3116 3116 3116 3116 3116 3116 3116 3116 3116
3049 3051 3053 3054 3056 3058 3059 3062 3064 3066 3068 3070 3072 3074 3076 3078 3080 3082 3084 3086 3088 3089 3091 3092 3094 3095 3096 3097 3098 3100 3101 3101 3102 3103 3104 3104 3105 3105 3106 3107 3108 3108 3109 3109 3110 3110 3110 3111 3112 3112 3113 3113 3113 3114 3114 3115 3115 3115 3115 3115 3115 3115 3115 3116 3116 3116 3116 3116 3116
3049 3051 3052 3054 3055 3057 3059 3062 3064 3066 3068 3070 3072 3074 3077 3079 3081 3083 3084 3086 3088 3090 3091 3092 3093 3095 3096 3097 3098 3099 3100 3101 3102 3103 3103 3104 3104 3105 3106 3106 3107 3108 3108 3109 3109 3110 3110 3110 3111 3111 3112 3112 3113 3113 3114 3114 3114 3114 3115 3115 3115 3115 3115 3115 3115 3115 3115 3115 3115
3049 3050 3052 3053 3055 3057 3059 3062 3064 3067 3069 3071 3073 3075 3077 3079 3081 3083 3085 3087 3088 3090 3091 3092 3093 3095 3096 3097 3098 3099 3100 3100 3101 3102 3103 3104 3104 3105 3105 3106 3107 3107 3108 3108 3109 3109 3109 3110 3110 3111 3111 3112 3112 3113 3113 3113 3114 3114 3114 3114 3114 3114 3114 3115 3115 3115 3115 3115 3115
3049 3050 3052 3053 3055 3058 3060 3062 3064 3067 3069 3071 3073 3076 3078 3080 3082 3084 3086 3087 3088 3090 3091 3092 3093 3095 3096 3097 3098 3098 3099 3100 3101 3102 3103 3103 3104 3104 3105 3105 3106 3107 3107 3108 3108 3109 3109 3109 3110 3110 3111 3111 3112 3112 3113 3113 3113 3113 3113 3113 3113 3114 3114 3114 3114 3114 3115 3115 3115
3048 3050 3052 3053 3055 3058 3060 3062 3065 3067 3069 3072 3074 3076 3078 3080 3083 3084 3086 3087 3089 3090 3091 3092 3093 3094 3096 3097 3098 3098 3099 3100 3101 3102 3102 3103 3103 3104 3105 3105 3106 3106 3107 3107 3108 3108 3109 3109 3110 3110 3110 3111 3111 3112 3112 3113 3113 3113 3113 3113 3113 3113 3113 3114 3114 3114 3114 3114 3114
3048 3050 3052 3054 3056 3058 3060 3063 3065 3067 3070 3072 3075 3077 3079 3081 3083 3084 3086 3088 3089 3090 3091 3093 3093 3094 3095 3096 3097 3098 3099 3100 3100 3101 3102 3103 3103 3104 3104 3105 3106 3106 3107 3107 3108 3108 3108 3109 3109 3110 3110 3111 3111 3111 3112 3112 3112 3112 3112 3113 3113 3113 3113 3113 3113 3114 3114 3114 3114
3048 3050 3052 3054 3056 3058 3061 3063 3065 3068 3070 3073 3075 3077 3079 3081 3083 3085 3086 3088 3089 3090 3091 3093 3093 3094 3095 3096 3097 3098 3098 3099 3100 3101 3102 3102 3103 3103 3104 3105 3105 3106 3106 3107 3107 3108 3108 3109 3109 3109 3110 3110 3111 3111 3111 3112 3112 3112 3112 3112 3112 3113 3113 3113 3113 3113 3113 3113 3113
3049 3051 3053 3055 3057 3059 3061 3063 3066 3068 3070 3073 3075 3077 3079 3081 3083 3085 3087 3088 3089 3090 3091 3092 3093 3094 3095 3096 3097 3097 3098 3099 3100 3101 3101 3102 3103 3103 3104 3104 3105 3105 3106 3106 3107 3107 3108 3108 3109 3109 3110 3110 3110 3111 3111 3111 3111 3111 3112 3112 3112 3112 3113 3113 3113 3113 3113 3113 3113
3049 3051 3053 3055 3058 3060 3062 3064 3066 3068 3071 3073 3075 3077 3079 3081 3083 3085 3086 3088 3089 3090 3091 3092 3093 3094 3095 3096 3096 3097 3098 3099 3099 3100 3101 3102 3102 3103 3103 3104 3104 3105 3105 3106 3106 3107 3108 3108 3108 3109 3109 3110 3110 3110 3110 3110 3111 3111 3111 3111 3112 3112 3112 3112 3112 3113 3113 3113 3113
3049 3052 3054 3056 3058 3060 3063 3065 3067 3069 3071 3073 3075 3077 3079 3081 3083 3085 3086 3088 3089 3090 3091 3092 3093 3094 3094 3095 3096 3097 3097 3098 3099 3100 3100 3101 3102 3103 3103 3103 3104 3104 3105 3105 3106 3107 3107 3108 3108 3108 3109 3109 3109 3109 3110 3110 3110 3111 3111 3111 3111 3112 3112 3112 3112 3112 3112 3112 3112
3050 3052 3054 3057 3059 3061 3063 3065 3067 3069 3071 3073 3075 3077 3079 3081 3083 3084 3086 3087 3088 3090 3091 3092 3093 3094 3094 3095 3096 3096 3097 3098 3098 3099 3100 3101 3102 3102 3103 3103 3104 3104 3104 3105 3106 3106 3107 3107 3108 3108 3108 3108 3108 3109 3109 3109 3110 3110 3110 3111 3111 3111 3111 3111 3111 3111 3112 3112 3112
3050 3052 3054 3057 3059 3061 3063 3066 3068 3069 3071 3073 3075 3077 3079 3081 3083 3084 3086 3087 3088 3089 3091 3092 3093 3093 3094 3095 3095 3096 3097 3098 3098 3099 3100 3101 3101 3102 3102 3103 3103 3104 3104 3105 3105 3106 3106 3107 3107 3107 3108 3108 3108 3108 3109 3109 3109 3110 3110 3110 3110 3110 3111 3111 3111 3111 3111 3112 3112
3050 3052 3055 3057 3059 3062 3064 3066 3068 3069 3071 3073 3075 3077 3079 3081 3083 3084 3085 3087 3088 3089 3091 3092 3092 3093 3094 3094 3095 3096 3097 3097 3098 3099 3100 3100 3101 3102 3102 3103 3103 3103 3104 3104 3105 3105 3106 3106 3106 3107 3107 3107 3108 3108 3108 3108 3109 3109 3109 3110 3110 3110 3110 3110 3111 3111 3111 3111 3111
3050 3053 3055 3057 3059 3062 3064 3066 3068 3069 3071 3073 3075 3077 3079 3081 3083 3084 3085 3087 3088 3089 3090 3091 3092 3093 3093 3094 3095 3095 3096 3097 3098 3098 3099 3100 3101 3101 3102 3102 3103 3103 3103 3104 3104 3105 3105 3105 3106 3106 3107 3107 3107 3108 3108 3108 3108 3109 3109 3109 3109 3110 3110 3110 3110 3111 3111 3111 3111
3050 3053 3055 3057 3059 3062 3064 3066 3068 3069 3071 3073 3075 3077 3079 3081 3082 3084 3085 3087 3088 3089 3090 3091 3092 3093 3093 3094 3095 3095 3096 3097 3098 3098 3099 3100 3100 3101 3101 3102 3102 3103 3103 3103 3104 3104 3104 3105 3105 3106 3106 3106 3107 3107 3108 3108 3108 3108 3109 3109 3109 3110 3110 3110 3110 3111 3111 3111 3111
3051 3053 3055 3057 3059 3062 3064 3066 3068 3069 3071 3073 3075 3077 3079 3081 3082 3084 3085 3087 3088 3089 3090 3091 3092 3093 3093 3094 3094 3095 3096 3096 3097 3098 3098 3099 3100 3100 3101 3101 3102 3102 3103 3103 3103 3103 3104 3104 3105 3105 3106 3106 3106 3107 3107 3108 3108 3108 3108 3109 3109 3109 3110 3110 3110 3110 3110 3110 3110
3051 3053 3055 3057 3059 3062 3064 3066 3067 3069 3071 3073 3075 3077 3079 3081 3082 3084 3085 3087 3088 3089 3090 3091 3092 3092 3093 3093 3094 3095 3095 3096 3097 3097 3098 3099 3099 3100 3100 3101 3101 3102 3102 3102 3103 3103 3103 3104 3104 3105 3105 3106 3106 3106 3107 3107 3108 3108 3108 3109 3109 3109 3110 3110 3110 3110 3110 3110 3110
3051 3053 3055 3057 3060 3062 3064 3066 3067 3069 3071 3073 3075 3077 3079 3081 3083 3084 3085 3087 3088 3089 3090 3091 3091 3092 3093 3093 3094 3094 3095 3096 3096 3097 3098 3098 3099 3099 3100 3100 3101 3101 3102 3102 3102 3103 3103 3104 3104 3104 3105 3105 3106 3106 3107 3107 3108 3108 3108 3109 3109 3109 3109 3109 3110 3110 3109 3109 3109
3051 3053 3055 3058 3060 3062 3064 3066 3068 3070 3072 3073 3075 3077 3079 3081 3082 3084 3085 3086 3088 3089 3090 3090 3091 3092 3093 3093 3094 3094 3095 3096 3096 3097 3097 3098 3098 3099 3099 3100 3100 3101 3101 3101 3102 3102 3103 3103 3104 3104 3104 3105 3105 3106 3107 3107 3108 3108 3108 3108 3109 3109 3109 3109 3109 3109 3109 3109 3109
3051 3053 3055 3058 3059 3062 3063 3066 3068 3070 3072 3073 3075 3077 3079 3081 3082 3084 3085 3086 3088 3088 3089 3090 3091 3092 3092 3093 3093 3094 3095 3095 3096 3097 3097 3098 3098 3098 3099 3099 3100 3100 3100 3101 3101 3102 3102 3103 3103 3104 3104 3105 3105 3106 3106 3107 3107 3108 3108 3108 3109 3109 3109 3109 3108 3108 3108 3108 3108
3051 3053 3055 3057 3059 3061 3063 3066 3068 3070 3071 3073 3075 3077 3079 3081 3082 3083 3085 3086 3087 3088 3089 3090 3091 3092 3092 3093 3093 3094 3095 3095 3096 3096 3097 3097 3098 3098 3098 3099 3099 3099 3100 3100 3101 3101 3102 3102 3103 3103 3104 3104 3105 3106 3106 3107 3107 3108 3108 3108 3108 3108 3108 3108 3108 3108 3108 3108 3108
3051 3053 3055 3057 3059 3061 3063 3066 3068 3069 3071 3073 3075 3077 3079 3080 3082 3083 3085 3086 3087 3088 3089 3090 3091 3091 3092 3093 3093 3094 3094 3095 3096 3096 3096 3097 3097 3098 3098 3098 3099 3099 3099 3100 3100 3101 3101 3102 3103 3103 3103 3104 3105 3105 3106 3106 3107 3107 3108 3108 3108 3108 3108 3108 3108 3108 3108 3108 3108
3051 3053 3054 3056 3059 3061 3064 3066 3068 3069 3071 3073 3075 3077 3078 3080 3082 3083 3084 3086 3087 3088 3089 3090 3091 3091 3092 3092 3093 3093 3094 3095 3095 3096 3096 3096 3097 3097 3098 3098 3098 3098 3099 3099 3100 3100 3101 3102 3102 3103 3103 3104 3104 3105 3105 3106 3106 3107 3107 3107 3108 3108 3108 3108 3108 3107 3107 3107 3107
3050 3052 3054 3056 3059 3062 3064 3066 3068 3069 3071 3073 3075 3077 3078 3080 3081 3083 3084 3085 3087 3088 3089 3090 3090 3091 3092 3092 3093 3093 3094 3094 3095 3095 3096 3096 3096 3097 3097 3098 3098 3098 3098 3099 3099 3100 3101 3101 3102 3102 3103 3103 3104 3104 3105 3105 3106 3106 3106 3107 3107 3107 3107 3107 3107 3107 3107 3107 3107
3050 3052 3054 3057 3059 3062 3064 3066 3068 3069 3071 3073 3075 3077 3078 3080 3081 3082 3084 3085 3086 3088 3088 3089 3090 3090 3091 3092 3092 3093 3093 3094 3094 3095 3095 3096 3096 3096 3097 3097 3097 3098 3098 3098 3099 3100 3100 3101 3101 3102 3103 3103 3104 3104 3104 3105 3105 3106 3106 3106 3106 3107 3107 3107 3107 3106 3106 3106 3106
3050 3053 3054 3057 3059 3062 3064 3066 3068 3069 3071 3073 3074 3076 3078 3079 3080 3082 3083 3085 3086 3087 3088 3089 3089 3090 3091 3091 3092 3092 3093 3093 3094 3094 3095 3095 3096 3096 3096 3097 3097 3097 3098 3098 3099 3099 3100 3100 3101 3102 3102 3103 3103 3104 3104 3104 3105 3105 3105 3106 3106 3106 3106 3106 3106 3106 3106 3106 3106
3051 3053 3055 3057 3059 3062 3064 3066 3067 3069 3071 3073 3074 3076 3078 3079 3080 3081 3083 3084 3085 3087 3088 3088 3089 3089 3090 3091 3091 3092 3093 3093 3093 3094 3094 3095 3095 3095 3096 3096 3097 3097 3097 3098 3098 3099 3099 3100 3101 3101 3102 3102 3103 3103 3104 3104 3104 3105 3105 3105 3106 3106 3106 3106 3106 3106 3105 3105 3105
3052 3053 3055 3058 3060 3062 3063 3065 3067 3069 3071 3073 3075 3076 3077 3078 3080 3081 3083 3084 3085 3086 3087 3088 3088 3089 3089 3090 3091 3092 3092 3093 3093 3093 3094 3094 3095 3095 3095 3096 3096 3097 3097 3098 3098 3099 3099 3100 3100 3101 3101 3102 3102 3103 3103 3103 3104 3104 3105 3105 3105 3105 3105 3105 3105 3105 3105 3105 3105
3052 3054 3056 3058 3060 3062 3063 3065 3067 3069 3071 3073 3074 3076 3077 3078 3079 3081 3082 3083 3084 3085 3086 3087 3088 3088 3089 3090 3090 3091 3092 3092 3093 3093 3093 3094 3094 3094 3095 3095 3096 3096 3097 3097 3098 3098 3099 3099 3100 3100 3101 3101 3102 3102 3103 3103 3103 3104 3104 3105 3105 3105 3105 3105 3105 3105 3105 3104 3104
3052 3054 3056 3058 3060 3061 3063 3065 3067 3069 3071 3072 3074 3075 3076 3077 3078 3080 3081 3083 3083 3084 3085 3086 3087 3088 3088 3089 3090 3091 3091 3092 3092 3093 3093 3093 3094 3094 3094 3095 3095 3096 3096 3097 3097 3098 3098 3099 3099 3100 3100 3101 3102 3102 3102 3103 3103 3103 3104 3104 3104 3105 3105 3105 3104 3104 3104 3104 3104
3052 3054 3056 3058 3060 3061 3063 3065 3067 3068 3070 3072 3073 3074 3075 3076 3078 3079 3081 3082 3083 3084 3084 3085 3086 3087 3088 3089 3089 3090 3090 3091 3091 3092 3092 3093 3093 3093 3094 3094 3095 3095 3096 3096 3097 3098 3098 3098 3099 3099 3100 3100 3101 3102 3102 3102 3103 3103 3103 3104 3104 3104 3104 3104 3104 3104 3104 3103 3103
3052 3054 3056 3058 3059 3061 3063 3064 3066 3068 3070 3071 3072 3073 3074 3076 3077 3078 3080 3081 3082 3083 3084 3085 3086 3087 3088 3088 3089 3089 3090 3090 3091 3091 3092 3092 3092 3093 3093 3094 3094 3095 3095 3096 3096 3097 3098 3098 3098 3099 3099 3100 3101 3101 3102 3102 3102 3103 3103 3103 3103 3104 3104 3104 3104 3103 3103 3103 3103
3052 3054 3056 3058 3059 3061 3063 3064 3066 3067 3069 3070 3072 3073 3074 3075 3077 3078 3079 3080 3081 3082 3083 3084 3085 3086 3087 3088 3088 3088 3089 3089 3090 3090 3091 3091 3092 3092 3093 3093 3094 3094 3095 3095 3096 3096 3097 3098 3098 3098 3099 3100 3100 3101 3101 3102 3102 3102 3103 3103 3103 3103 3103 3103 3103 3103 3103 3103 3103